Location: Newark
(50.4348°N, 30.5552°E)
Time: 20:35:49
(UTC+00:00)

Tiros 1 despin weight - Pass Details

Date: 29 January 2020
Orbit: 594 x 642 km, 48.2° (Epoch: 22 February)

Event Time Altitude Azimuth Distance (km) Brightness Sun altitude
Rises 07:26:19 0° 209° (SSW) 2,837 ? 12.6°
Reaches altitude 10° 07:29:02 10° 193° (SSW) 1,945 ? 12.8°
Maximum altitude 07:32:22 21° 145° (SE) 1,383 ? 13.2°
Drops below altitude 10° 07:35:45 10° 96° (E) 1,974 ? 13.5°
Sets 07:38:31 0° 81° (E) 2,893 ? 13.8°
